STARLINK-33878, 63862

Orbit data source: Space-Track

STARLINK-33878, 63862 is a payload satellite owned by SpaceX/Seattle (US) in LEO that was launched on Wed, 07 May 2025 UTC via an FALCON 9 launch vehicle from the Air Force Eastern Test Range (AFETR). Payload-class satellites include a variety of spacecraft equipped with specific instruments for various scientific and technological missions. These include communications satellites like Starlink; space stations such as the ISS; scientific satellites like the Hubble; Earth observation satellites from companies like Planet Labs, Umbra, and HawkEye 360; GPS; miniature CubeSats for education and research; and military/defense satellites.

Loading next visibility...
Identifier
63862, 2025-093AC
Orbit
LEO
Country
Flag of USUS
Related business
Manufacturer
SpaceX/Seattle
Mission
Operational Commercial Communications
Bus & Motor
STARLINK V2MO, Unknown motor
Mass
575 kg wet, ~530 kg dry
Launch date (UTC)
2025-05-07 (7 months ago)
Launch vehicle
FALCON 9
Launch site
Air Force Eastern Test Range (AFETR)
Object type
Payload
Rocket body
Debris
Shape & HBR
Box + 2 Pan, 17.7 m
Radar Cross Section
36.964 m², Large (>1 m²)

Expand to show TLE details & history
Last TLE update: 15 hours ago

TLE from 15 hours ago
0 STARLINK-33878
1 63862U 25093AC  25348.97059164  .00018445  00000-0  67815-3 0  9999
2 63862  43.0021 196.4630 0001633 261.8924  98.1743 15.27578322 35003
Epoch: 2025-12-14T23:17Z
TLE epoch observation values (Epoch: 2025-12-14T23:17:39.117Z)
Latitude
0.00001°
Longitude
123.17416°
Altitude
482.989 km
Speed
7.626 km/s
True Right ascension
13h 05m 51s
True Declination
0° 00' 00"
Sunlit
Object was in daylight at epoch
Visualization orbit readout
Latitude
Unknown
Longitude
Unknown
Altitude
Unknown
Speed
Unknown
Apparent Right ascension
Unknown
Apparent Declination
Unknown
Sunlit
N/A
Visualization observer readout
Local Sidereal Time
13:23:56
Azimuth
Unknown
Elevation
Unknown
Doppler factor
Unknown
Orbital elements
Apogee altitude
486.12 km
Perigee altitude
483.878 km
Semi-major axis
6,863.136 km
Eccentricity
0.00016
Inclination
43.0021°
RAAN
196.463°
Arg. of periapsis
261.8924°
True anomaly
98.19282°
Mean anomaly
98.1743°
Eccentric anomaly
98.18356°
Mean motion
3.81733 °/min
Orbital period
94.31 mins
BSTAR
0.00067815
Loading maneuver chart data...
Computing Atmospheric mass density...
Loading historical data...
Loading historical data...
Loading historical data...
Loading historical data...
Loading historical data...
Loading historical data...
Loading historical data...

Documentation

Showing up to 5 results
|